[[{"header":{"parameterUnit":"m.s-1","parameterCategory":1,"la1":30.2991,"la2":30.254,"lo1":-89.0895,"lo2":-89.0444,"dy":0.0017,"dx":0.0017,"nx":28,"ny":28,"refTime":"2024-08-07T03:00:00:Z","depth":0,"parameterNumber":2,"parameterNumberName":"U-component_of_WINDS"},"data":[0,0,0,0,0,0,0,0,0,0,0,0,0,0,0,0,0,0,0,0,0,0,0,0,0,0,0,0,0,0,0,0,0,0,0,0,0,0,0,0,0,0,0,0,0,0,0,0,0,0,0,0,0,0,0,0,0,0,3.3191,3.3191,0,3.3249,3.325,3.3251,3.3213,3.3212,3.321,3.3208,3.3273,3.3277,3.328,0,0,0,0,0,0,0,0,0,0,0,0,0,3.3054,3.3057,3.3191,3.3191,3.3192,3.3249,3.325,3.3251,3.3214,3.3212,3.3209,3.3207,3.3272,3.3276,3.328,0,0,0,0,0,0,0,0,0,0,0,0,0,3.3113,3.3058,3.3191,3.318,3.318,3.3249,3.325,3.3251,3.3214,3.3211,3.3209,3.3206,3.3271,3.3276,3.3281,3.3365,0,0,3.3296,3.3298,0,0,0,0,0,0,0,0,3.311,3.3118,3.3181,3.3181,3.3181,3.3221,3.3226,3.3289,3.3215,3.3201,3.3208,3.3205,3.3258,3.3264,3.3281,3.3368,3.3371,3.3297,3.33,3.3302,3.3303,0,0,0,0,0,0,0,3.3106,3.3116,3.3214,3.3182,3.3182,3.3175,3.3181,3.3238,3.3244,3.3202,3.32,3.3207,3.3258,3.3277,3.3283,3.3371,3.3297,3.3301,3.3304,3.3306,3.3537,3.354,0,0,0,0,0,0,3.3102,3.3112,3.3212,3.3216,3.3138,3.318,3.3186,3.3211,3.3243,3.3246,3.3209,3.3205,3.3269,3.3277,3.3285,3.339,3.3302,3.3307,3.3309,3.3534,3.3537,3.3541,0,0,0,0,0,0,3.3099,3.3111,3.321,3.3164,3.3176,3.3185,3.3213,3.3214,3.3232,3.3248,3.325,3.3226,3.3267,3.3278,3.3346,3.3391,3.3309,3.3313,3.353,3.3535,3.3539,3.3597,0,0,0,0,0,0,3.3095,3.311,3.314,3.3164,3.3178,3.3268,3.3216,3.3217,3.324,3.3235,3.3265,3.3268,3.3266,3.3339,3.3351,3.3397,3.3317,3.3526,3.3532,3.3537,3.3591,3.3603,3.3614,0,0,0,0,0,3.309,3.3154,3.3142,3.3154,3.3215,3.327,3.3279,3.3274,3.3244,3.3276,3.3287,3.3267,3.3384,3.3346,3.336,3.3407,3.3523,3.353,3.3537,3.3587,3.3601,3.3613,0,0,0,0,0,0,3.3135,3.3157,3.3143,3.3216,3.3242,3.3264,3.3304,3.3289,3.3325,3.3319,3.3313,3.3321,3.3393,3.3407,3.3364,3.3494,3.3449,3.3459,3.3482,3.3496,3.3507,3.3504,3.3322,0,0,0,0,0,3.3153,3.3194,3.3211,3.3274,3.3288,3.3294,3.3317,3.3312,3.3339,3.335,3.3366,3.3395,3.3439,3.3468,3.3508,3.3593,3.3602,3.3633,3.3644,3.3653,3.3663,3.3714,3.3729,3.3563,3.3563,3.3563,0,0,3.3191,3.3208,3.3234,3.3284,3.3303,3.3349,3.3303,3.3352,3.3387,3.3358,3.3425,3.3438,3.347,3.3548,3.3584,3.3562,3.371,3.3662,3.3669,3.3674,3.3723,3.3738,3.3752,3.3568,3.3567,3.3567,0,0,3.3285,3.33,3.3356,3.3377,3.3407,3.3411,3.3425,3.345,3.3458,3.3525,3.3505,3.3548,3.3622,3.3648,3.367,3.3778,3.3763,3.3792,3.3851,3.3901,3.3914,3.3926,3.3969,3.3984,3.3801,3.3801,3.3801,0,3.3329,3.3395,3.3387,3.344,3.3464,3.3439,3.3499,3.352,3.3562,3.3581,3.3556,3.3652,3.3671,3.3758,3.3785,3.3802,3.3822,3.3789,3.3912,3.3924,3.3935,3.3976,3.3992,3.3805,3.3804,3.3804,3.3804,0,3.3451,3.3497,3.354,3.3582,3.3611,3.3666,3.367,3.3701,3.3694,3.3702,3.3773,3.3796,3.3844,3.3863,3.3856,3.3951,3.3937,3.3912,3.3868,3.3954,3.3994,3.4009,3.381,3.3809,3.3808,3.3807,0,0,3.3573,3.3612,3.3629,3.365,3.3682,3.372,3.3776,3.3822,3.3851,3.3882,3.3932,3.3997,3.3976,3.4002,3.3998,3.4042,3.4133,3.4012,3.4013,3.4037,3.4244,3.4266,3.4284,3.4122,3.4124,3.4127,3.4243,0,3.3673,3.3769,3.3766,3.3858,3.3904,3.3883,3.3933,3.3961,3.3971,3.4014,3.4025,3.4074,3.4039,3.4055,3.4097,3.4112,3.4175,3.4104,3.4173,3.4175,3.4168,3.4303,3.4325,3.4433,3.4258,3.426,3.4262,0,3.38,3.3837,3.3933,3.3964,3.3983,3.4028,3.4073,3.4112,3.4145,3.415,3.4181,3.4171,3.4233,3.4186,3.4273,3.4225,3.4254,3.4266,3.427,3.4279,3.4226,3.432,3.4467,3.4485,3.4285,3.4283,3.4282,0,3.3886,3.3959,3.4027,3.4045,3.4081,3.4114,3.4131,3.4161,3.4191,3.423,3.425,3.4297,3.4323,3.4361,3.4367,3.433,3.4457,3.4408,3.4466,3.4467,3.4496,3.4495,3.4654,3.4508,3.4508,3.4507,3.4507,0,3.3999,3.406,3.4067,3.4109,3.4179,3.4176,3.4246,3.426,3.4288,3.4336,3.432,3.4366,3.4368,3.4417,3.4421,3.4496,3.4507,3.4516,3.4517,3.452,3.4519,3.454,3.4534,3.4512,3.4511,3.451,3.4509,0,3.4107,3.4113,3.4188,3.4217,3.4226,3.4276,3.4303,3.4345,3.4355,3.4416,3.443,3.4446,3.4502,3.4511,3.4576,3.458,3.4672,3.4663,3.4661,3.4661,3.472,3.4716,3.4901,3.4928,3.4761,3.4762,3.4764,0,3.4181,3.4228,3.4262,3.4293,3.4312,3.4361,3.4391,3.4391,3.4424,3.4468,3.4507,3.4561,3.4605,3.4697,3.4716,3.4768,3.4763,3.4825,3.4771,3.4774,3.477,3.4769,3.4776,3.4836,3.4838,3.4839,3.484,0,3.4312,3.4314,3.4357,3.4404,3.4441,3.4477,3.4512,3.4538,3.4544,3.4582,3.4639,3.4674,3.4742,3.4799,3.4851,3.4871,3.486,3.4857,3.4874,3.4879,3.4877,3.4884,3.4693,3.4853,3.4852,3.4851,3.485,3.485,3.4408,3.4451,3.4483,3.4534,3.456,3.4594,3.4637,3.4652,3.4699,3.4755,3.4752,3.4817,3.4854,3.4922,3.4947,3.5,3.498,3.5004,3.501,3.5017,3.5025,3.4866,3.5009,3.5008,3.5008,3.5008,3.5008,0,3.4543,3.4563,3.461,3.4659,3.4701,3.4683,3.4722,3.4758,3.4815,3.4849,3.4893,3.4962,3.5018,3.5042,3.5098,3.5136,3.5132,3.5151,3.515,3.5157,3.5037,3.5019,3.5154,3.5154,3.5154,3.5154,3.5153,3.5153,3.4618,3.4691,3.4697,3.4785,3.4805,3.4868,3.4892,3.4925,3.4953,3.503,3.5076,3.5091,3.5123,3.5182,3.5234,3.524,3.5263,3.5286,3.529,3.5179,3.5164,3.515,3.5133,3.529,3.529,3.5405,3.5406,3.5407]},{"header":{"parameterUnit":"m.s-1","parameterCategory":1,"la1":30.2991,"la2":30.254,"lo1":-89.0895,"lo2":-89.0444,"dy":0.0017,"dx":0.0017,"nx":28,"ny":28,"refTime":"2024-08-07T03:00:00:Z","depth":0,"parameterNumber":3,"parameterNumberName":"V-component_of_WINDS"},"data":[0,0,0,0,0,0,0,0,0,0,0,0,0,0,0,0,0,0,0,0,0,0,0,0,0,0,0,0,0,0,0,0,0,0,0,0,0,0,0,0,0,0,0,0,0,0,0,0,0,0,0,0,0,0,0,0,0,0,-0.5664,-0.5662,0,-0.5455,-0.5453,-0.545,-0.5466,-0.5469,-0.5472,-0.5475,-0.5254,-0.5246,-0.5237,0,0,0,0,0,0,0,0,0,0,0,0,0,-0.607,-0.6062,-0.5664,-0.5661,-0.5659,-0.5456,-0.5453,-0.545,-0.5466,-0.5469,-0.5473,-0.5477,-0.5257,-0.5247,-0.5236,0,0,0,0,0,0,0,0,0,0,0,0,0,-0.588,-0.606,-0.5664,-0.5642,-0.5638,-0.5456,-0.5453,-0.5449,-0.5465,-0.547,-0.5474,-0.5479,-0.526,-0.5248,-0.5235,-0.5059,0,0,-0.5194,-0.5188,0,0,0,0,0,0,0,0,-0.5891,-0.5865,-0.5648,-0.5644,-0.5639,-0.5492,-0.5515,-0.5318,-0.5464,-0.553,-0.5476,-0.5481,-0.5329,-0.531,-0.5261,-0.5048,-0.5039,-0.5193,-0.5185,-0.5179,-0.5176,0,0,0,0,0,0,0,-0.5904,-0.5874,-0.5581,-0.5645,-0.5639,-0.5641,-0.5619,-0.5477,-0.5405,-0.5525,-0.5526,-0.5501,-0.5327,-0.5273,-0.5255,-0.5035,-0.5193,-0.5182,-0.5173,-0.5168,-0.4668,-0.4663,0,0,0,0,0,0,-0.5923,-0.5885,-0.5588,-0.5575,-0.5779,-0.563,-0.5605,-0.5534,-0.5407,-0.5392,-0.5497,-0.5503,-0.5294,-0.5271,-0.5248,-0.5033,-0.5179,-0.5167,-0.5159,-0.4674,-0.4667,-0.4661,0,0,0,0,0,0,-0.5932,-0.5897,-0.5596,-0.573,-0.5692,-0.5618,-0.5537,-0.5527,-0.5474,-0.5386,-0.5373,-0.5456,-0.5296,-0.5266,-0.5106,-0.5026,-0.5161,-0.5149,-0.468,-0.4672,-0.4664,-0.4603,0,0,0,0,0,0,-0.5943,-0.59,-0.5833,-0.5729,-0.5685,-0.546,-0.5532,-0.552,-0.5452,-0.5457,-0.5344,-0.533,-0.5298,-0.5126,-0.5093,-0.501,-0.5139,-0.4687,-0.4676,-0.4667,-0.4612,-0.4594,-0.4579,0,0,0,0,0,-0.5958,-0.5823,-0.583,-0.5794,-0.5601,-0.5455,-0.543,-0.5398,-0.5445,-0.5377,-0.5321,-0.5333,-0.5041,-0.5109,-0.5072,-0.4984,-0.4692,-0.4679,-0.4668,-0.462,-0.4598,-0.4579,0,0,0,0,0,0,-0.5917,-0.5809,-0.5815,-0.5643,-0.5558,-0.5458,-0.5371,-0.5376,-0.5274,-0.5283,-0.5245,-0.522,-0.5059,-0.5005,-0.5084,-0.4808,-0.4872,-0.4852,-0.4848,-0.4827,-0.481,-0.4826,-0.5128,0,0,0,0,0,-0.5888,-0.5781,-0.5691,-0.5548,-0.5505,-0.5446,-0.5381,-0.5364,-0.5274,-0.5237,-0.517,-0.508,-0.4968,-0.4894,-0.4786,-0.4605,-0.458,-0.4526,-0.451,-0.4497,-0.4479,-0.438,-0.4355,-0.4622,-0.4622,-0.4622,0,0,-0.5827,-0.5754,-0.5688,-0.5538,-0.547,-0.5358,-0.5415,-0.5294,-0.521,-0.5218,-0.5063,-0.5011,-0.4908,-0.4737,-0.4658,-0.4687,-0.4401,-0.4481,-0.4472,-0.4461,-0.4365,-0.434,-0.4317,-0.4614,-0.4615,-0.4617,0,0,-0.5658,-0.5593,-0.5466,-0.5398,-0.5297,-0.5258,-0.5228,-0.5127,-0.5093,-0.4938,-0.4942,-0.4841,-0.4648,-0.4575,-0.4513,-0.4318,-0.4325,-0.4284,-0.4196,-0.41,-0.4079,-0.406,-0.399,-0.3965,-0.4267,-0.4267,-0.4267,0,-0.5593,-0.5427,-0.54,-0.5278,-0.5211,-0.5217,-0.5088,-0.5022,-0.4889,-0.4842,-0.4878,-0.4638,-0.4569,-0.4381,-0.4333,-0.4283,-0.4246,-0.4296,-0.4084,-0.4065,-0.4047,-0.398,-0.3954,-0.4263,-0.4263,-0.4263,-0.4264,0,-0.5353,-0.5238,-0.5147,-0.5022,-0.4945,-0.482,-0.4772,-0.4697,-0.4687,-0.4644,-0.4486,-0.4404,-0.428,-0.4234,-0.4222,-0.4044,-0.4065,-0.4093,-0.4157,-0.4018,-0.3954,-0.3928,-0.4256,-0.4258,-0.4259,-0.426,0,0,-0.515,-0.5014,-0.4981,-0.4925,-0.4814,-0.4723,-0.4598,-0.4479,-0.4415,-0.4324,-0.4217,-0.4055,-0.4081,-0.401,-0.399,-0.3905,-0.3756,-0.3943,-0.394,-0.3911,-0.3554,-0.3534,-0.3504,-0.3761,-0.3756,-0.3752,-0.3563,0,-0.497,-0.4752,-0.4724,-0.4529,-0.4421,-0.4426,-0.4317,-0.4236,-0.4193,-0.4094,-0.4045,-0.3931,-0.3974,-0.3931,-0.3848,-0.3792,-0.3684,-0.3805,-0.3659,-0.3654,-0.3684,-0.3471,-0.3448,-0.3274,-0.3538,-0.3533,-0.353,0,-0.473,-0.4635,-0.443,-0.4336,-0.4289,-0.4192,-0.4081,-0.3987,-0.3895,-0.387,-0.3792,-0.3783,-0.3652,-0.3723,-0.3541,-0.3624,-0.3563,-0.3527,-0.3519,-0.3503,-0.3583,-0.3449,-0.3218,-0.3191,-0.3491,-0.3494,-0.3497,0,-0.4602,-0.4423,-0.4278,-0.4229,-0.4115,-0.4047,-0.3995,-0.3909,-0.3839,-0.3742,-0.3696,-0.3584,-0.3522,-0.3434,-0.3395,-0.345,-0.3215,-0.3282,-0.3189,-0.319,-0.3138,-0.3142,-0.2893,-0.31,-0.31,-0.3101,-0.3102,0,-0.4403,-0.4277,-0.4219,-0.4129,-0.3989,-0.3957,-0.3818,-0.3769,-0.3692,-0.3591,-0.3588,-0.3493,-0.3447,-0.3345,-0.3313,-0.3167,-0.3139,-0.3113,-0.3106,-0.3113,-0.3116,-0.3072,-0.3082,-0.3094,-0.3096,-0.3097,-0.3098,0,-0.4236,-0.4192,-0.4034,-0.394,-0.3914,-0.3814,-0.3732,-0.3644,-0.3603,-0.3476,-0.3444,-0.3378,-0.3258,-0.3211,-0.3062,-0.3041,-0.2873,-0.2876,-0.2905,-0.2902,-0.2812,-0.2821,-0.2525,-0.2484,-0.2719,-0.2717,-0.2715,0,-0.4112,-0.4016,-0.3912,-0.3847,-0.3794,-0.3687,-0.3617,-0.3583,-0.351,-0.3399,-0.3324,-0.3205,-0.3107,-0.2915,-0.2852,-0.2739,-0.2738,-0.2643,-0.2721,-0.2732,-0.2736,-0.2742,-0.2732,-0.2628,-0.2625,-0.2623,-0.2622,0,-0.3895,-0.3879,-0.378,-0.3673,-0.3591,-0.3504,-0.342,-0.3365,-0.3318,-0.3236,-0.3114,-0.3039,-0.289,-0.2771,-0.2655,-0.26,-0.2602,-0.2598,-0.257,-0.2576,-0.2597,-0.2584,-0.2865,-0.2605,-0.2606,-0.2608,-0.2609,-0.2609,-0.3745,-0.366,-0.3575,-0.3465,-0.3399,-0.332,-0.3234,-0.3183,-0.3082,-0.296,-0.2945,-0.2814,-0.2725,-0.257,-0.251,-0.2407,-0.2431,-0.2391,-0.2381,-0.2371,-0.2365,-0.2615,-0.2385,-0.2386,-0.2386,-0.2386,-0.2387,0,-0.3528,-0.3474,-0.3374,-0.3257,-0.317,-0.3184,-0.3091,-0.3017,-0.2903,-0.2821,-0.2727,-0.2587,-0.2472,-0.2402,-0.2286,-0.2216,-0.2215,-0.2187,-0.2191,-0.2179,-0.235,-0.2385,-0.2191,-0.2191,-0.2191,-0.2191,-0.2191,-0.2191,-0.3405,-0.3263,-0.3236,-0.306,-0.3006,-0.2881,-0.2827,-0.2754,-0.2689,-0.2534,-0.244,-0.2396,-0.2318,-0.2197,-0.2092,-0.2074,-0.2031,-0.2002,-0.1985,-0.2146,-0.2166,-0.2186,-0.2219,-0.1993,-0.1992,-0.1823,-0.1821,-0.182]}]]